[[{"header":{"parameterUnit":"m.s-1","parameterCategory":1,"la1":30.2991,"la2":30.254,"lo1":-89.0895,"lo2":-89.0444,"dy":0.0017,"dx":0.0017,"nx":28,"ny":28,"refTime":"2024-04-18T21:00:00:Z","depth":0,"parameterNumber":2,"parameterNumberName":"U-component_of_WINDS"},"data":[0,0,0,0,0,0,0,0,0,0,0,0,0,0,0,0,0,0,0,0,0,0,0,0,0,0,0,0,0,0,0,0,0,0,0,0,0,0,0,0,0,0,0,0,0,0,0,0,0,0,0,0,0,0,0,0,0,0,0.383,0.3831,0,0.3975,0.3977,0.3979,0.4028,0.4028,0.4027,0.4026,0.4181,0.4186,0.4191,0,0,0,0,0,0,0,0,0,0,0,0,0,0.36,0.3604,0.383,0.3832,0.3833,0.3975,0.3977,0.3979,0.4028,0.4027,0.4027,0.4026,0.418,0.4185,0.4191,0,0,0,0,0,0,0,0,0,0,0,0,0,0.3718,0.3605,0.3829,0.3875,0.388,0.3975,0.3977,0.398,0.4028,0.4027,0.4027,0.4026,0.4178,0.4185,0.4192,0.4253,0,0,0.4213,0.4216,0,0,0,0,0,0,0,0,0.3711,0.3727,0.3866,0.3872,0.3878,0.3982,0.3953,0.4072,0.4029,0.3972,0.4026,0.4025,0.4116,0.4128,0.4158,0.4261,0.4267,0.4214,0.4218,0.4221,0.4223,0,0,0,0,0,0,0,0.3703,0.3721,0.3888,0.3868,0.3876,0.389,0.3906,0.3976,0.4048,0.3977,0.3981,0.3997,0.412,0.4151,0.4162,0.427,0.4214,0.422,0.4224,0.4227,0.4431,0.4432,0,0,0,0,0,0,0.3686,0.3713,0.3883,0.3892,0.3791,0.3895,0.3912,0.395,0.4047,0.4061,0.3998,0.3999,0.4139,0.4154,0.4168,0.4246,0.4221,0.4228,0.4232,0.443,0.4431,0.4432,0,0,0,0,0,0,0.3681,0.3701,0.3877,0.3804,0.3827,0.3899,0.3942,0.3953,0.3985,0.4063,0.4077,0.4016,0.4139,0.4158,0.4231,0.4252,0.4231,0.4237,0.4428,0.443,0.4432,0.4403,0,0,0,0,0,0,0.3675,0.3699,0.3722,0.3804,0.3831,0.3936,0.3943,0.3957,0.3996,0.3999,0.4084,0.4097,0.414,0.422,0.4238,0.4261,0.4243,0.4427,0.4429,0.4431,0.4402,0.4404,0.4405,0,0,0,0,0,0.3666,0.3709,0.3723,0.3743,0.3861,0.3938,0.3953,0.4,0.3998,0.4022,0.4072,0.4094,0.4247,0.4228,0.4248,0.4274,0.4426,0.4428,0.4431,0.4402,0.4403,0.4405,0,0,0,0,0,0,0.363,0.3721,0.3737,0.3807,0.3864,0.3946,0.3978,0.4,0.406,0.4061,0.4118,0.4137,0.4206,0.4248,0.4224,0.4338,0.4338,0.4344,0.4309,0.4311,0.4312,0.43,0.4249,0,0,0,0,0,0.363,0.3683,0.376,0.3815,0.3843,0.3905,0.394,0.3971,0.4033,0.4058,0.4114,0.4175,0.4236,0.4276,0.4337,0.4409,0.4428,0.4437,0.4438,0.4438,0.4443,0.4485,0.4489,0.4441,0.4441,0.4441,0,0,0.3631,0.3687,0.3717,0.3809,0.3857,0.3912,0.3925,0.3983,0.4025,0.4068,0.414,0.4183,0.4255,0.4327,0.4362,0.4364,0.4461,0.4441,0.4441,0.4447,0.4488,0.4492,0.4496,0.4443,0.4442,0.4442,0,0,0.366,0.3708,0.3759,0.3806,0.3877,0.3918,0.393,0.4009,0.4038,0.4111,0.4144,0.4196,0.4301,0.4351,0.439,0.4438,0.4461,0.4456,0.4462,0.4501,0.4505,0.4509,0.4526,0.4532,0.4461,0.4461,0.4461,0,0.3653,0.3736,0.3783,0.3838,0.3878,0.3917,0.397,0.4014,0.4102,0.413,0.413,0.4262,0.4313,0.4398,0.4409,0.444,0.4457,0.4447,0.45,0.4505,0.4509,0.4526,0.4532,0.446,0.446,0.4461,0.4461,0,0.3723,0.378,0.3813,0.3895,0.3938,0.3992,0.4049,0.4088,0.4115,0.4157,0.4231,0.4294,0.4368,0.4391,0.4419,0.448,0.4478,0.4489,0.4489,0.4511,0.4529,0.4536,0.4459,0.4459,0.4459,0.446,0,0,0.3734,0.384,0.3852,0.3889,0.3971,0.4016,0.4073,0.4143,0.4176,0.4236,0.4285,0.4373,0.4382,0.4427,0.4461,0.4495,0.4529,0.4502,0.4504,0.4505,0.4601,0.4592,0.4599,0.4545,0.4546,0.4548,0.4595,0,0.3774,0.3874,0.3918,0.3999,0.4053,0.409,0.414,0.4196,0.4236,0.4289,0.4335,0.4396,0.4404,0.4431,0.4467,0.4517,0.4549,0.4515,0.4593,0.4595,0.4573,0.4608,0.4599,0.464,0.4602,0.4603,0.4604,0,0.3835,0.3892,0.3977,0.4052,0.4076,0.4119,0.4187,0.4237,0.4302,0.4329,0.4378,0.441,0.4472,0.4468,0.4555,0.453,0.4565,0.4595,0.4598,0.4607,0.46,0.4618,0.4655,0.4661,0.4615,0.4614,0.4613,0,0.3834,0.3933,0.3997,0.4028,0.4116,0.4146,0.4185,0.4248,0.4288,0.4348,0.4375,0.4442,0.4479,0.4532,0.4582,0.4574,0.4664,0.4664,0.469,0.4688,0.4707,0.4705,0.475,0.4729,0.4729,0.4729,0.4729,0,0.3874,0.3925,0.3997,0.4037,0.4095,0.4146,0.4203,0.4245,0.4301,0.435,0.4388,0.4434,0.4497,0.4552,0.4592,0.4658,0.4675,0.4699,0.4709,0.4696,0.4692,0.4719,0.4718,0.4731,0.473,0.473,0.473,0,0.3883,0.3933,0.4005,0.4083,0.4103,0.4143,0.421,0.4251,0.4293,0.4355,0.4372,0.4439,0.4505,0.456,0.4647,0.4674,0.4743,0.4755,0.472,0.4725,0.4747,0.4744,0.4811,0.4822,0.4794,0.4794,0.4794,0,0.3905,0.3945,0.4026,0.406,0.4098,0.4153,0.4193,0.4245,0.4286,0.4362,0.4394,0.4462,0.4519,0.4623,0.468,0.4747,0.4761,0.4779,0.4771,0.4756,0.4761,0.4758,0.4762,0.478,0.478,0.478,0.478,0,0.3939,0.3962,0.4017,0.4081,0.4127,0.418,0.4235,0.4262,0.4324,0.4368,0.4434,0.4478,0.4566,0.4634,0.4707,0.4749,0.4775,0.4782,0.4792,0.4778,0.4756,0.4768,0.4721,0.478,0.478,0.478,0.478,0.478,0.3955,0.3992,0.4054,0.4115,0.4161,0.4211,0.4252,0.4299,0.4354,0.4428,0.4456,0.4524,0.4589,0.4689,0.4732,0.4787,0.479,0.4804,0.4808,0.481,0.4808,0.4747,0.4801,0.4801,0.4801,0.4801,0.4801,0,0.3991,0.4033,0.4087,0.4161,0.4209,0.4228,0.4289,0.4328,0.4387,0.4444,0.4499,0.4576,0.4641,0.4703,0.4772,0.4804,0.4818,0.4821,0.4819,0.4828,0.4801,0.4786,0.4808,0.4808,0.4808,0.4808,0.4808,0.4808,0.4015,0.4078,0.4108,0.4195,0.4238,0.4303,0.4336,0.4383,0.4429,0.4512,0.4565,0.4605,0.4664,0.4738,0.4799,0.4816,0.484,0.4839,0.4859,0.4832,0.483,0.4829,0.4815,0.4843,0.4843,0.4882,0.4882,0.4882]},{"header":{"parameterUnit":"m.s-1","parameterCategory":1,"la1":30.2991,"la2":30.254,"lo1":-89.0895,"lo2":-89.0444,"dy":0.0017,"dx":0.0017,"nx":28,"ny":28,"refTime":"2024-04-18T21:00:00:Z","depth":0,"parameterNumber":3,"parameterNumberName":"V-component_of_WINDS"},"data":[0,0,0,0,0,0,0,0,0,0,0,0,0,0,0,0,0,0,0,0,0,0,0,0,0,0,0,0,0,0,0,0,0,0,0,0,0,0,0,0,0,0,0,0,0,0,0,0,0,0,0,0,0,0,0,0,0,0,2.2263,2.2263,0,2.2269,2.2269,2.2269,2.2259,2.2259,2.2259,2.2258,2.2263,2.2263,2.2264,0,0,0,0,0,0,0,0,0,0,0,0,0,2.2244,2.2245,2.2263,2.2263,2.2264,2.2269,2.2269,2.2269,2.2259,2.2259,2.2259,2.2258,2.2263,2.2263,2.2264,0,0,0,0,0,0,0,0,0,0,0,0,0,2.2251,2.2245,2.2263,2.226,2.2259,2.2269,2.2269,2.2269,2.226,2.2259,2.2259,2.2258,2.2262,2.2263,2.2264,2.2277,0,0,2.2266,2.2266,0,0,0,0,0,0,0,0,2.2251,2.2252,2.226,2.226,2.226,2.2263,2.2263,2.2271,2.226,2.2259,2.2258,2.2258,2.2263,2.2264,2.2266,2.2277,2.2277,2.2266,2.2266,2.2266,2.2266,0,0,0,0,0,0,0,2.225,2.2252,2.2265,2.226,2.226,2.2257,2.2258,2.2265,2.2264,2.2259,2.2259,2.2259,2.2263,2.2265,2.2266,2.2277,2.2266,2.2266,2.2266,2.2267,2.2298,2.2299,0,0,0,0,0,0,2.2251,2.2251,2.2265,2.2266,2.2254,2.2258,2.2258,2.2262,2.2264,2.2263,2.226,2.2259,2.2264,2.2265,2.2266,2.228,2.2266,2.2267,2.2267,2.2298,2.2298,2.2299,0,0,0,0,0,0,2.225,2.2252,2.2265,2.2258,2.226,2.2259,2.2263,2.2263,2.2265,2.2264,2.2264,2.2262,2.2264,2.2265,2.2274,2.228,2.2267,2.2268,2.2297,2.2298,2.2298,2.2309,0,0,0,0,0,0,2.225,2.2252,2.2257,2.2258,2.226,2.2273,2.2263,2.2263,2.2266,2.2265,2.2266,2.2266,2.2264,2.2273,2.2274,2.2281,2.2268,2.2296,2.2297,2.2298,2.2308,2.231,2.2312,0,0,0,0,0,2.2249,2.226,2.2257,2.2259,2.2267,2.2274,2.2275,2.2272,2.2267,2.2271,2.2271,2.2266,2.2279,2.2274,2.2276,2.2282,2.2296,2.2297,2.2298,2.2308,2.231,2.2312,0,0,0,0,0,0,2.2259,2.226,2.2257,2.2269,2.2271,2.2272,2.2278,2.2275,2.2278,2.2277,2.2273,2.2274,2.2283,2.2284,2.2278,2.2294,2.2287,2.2288,2.2293,2.2296,2.2297,2.2297,2.2269,0,0,0,0,0,2.2263,2.2269,2.2269,2.2279,2.2281,2.2279,2.2282,2.228,2.2282,2.2283,2.2283,2.2285,2.229,2.2293,2.2297,2.2309,2.2308,2.2314,2.2316,2.2317,2.2318,2.2323,2.2325,2.2302,2.2302,2.2302,0,0,2.227,2.2271,2.2275,2.2282,2.2283,2.2289,2.228,2.2287,2.2291,2.2284,2.2292,2.2293,2.2294,2.2304,2.2309,2.2305,2.2325,2.2319,2.232,2.232,2.2325,2.2327,2.2329,2.2303,2.2303,2.2303,0,0,2.2286,2.2288,2.2297,2.2298,2.2301,2.23,2.2302,2.2303,2.2303,2.2311,2.2306,2.2311,2.2319,2.232,2.2322,2.2338,2.2334,2.234,2.2349,2.2354,2.2356,2.2357,2.2362,2.2364,2.2341,2.2341,2.2341,0,2.2295,2.2304,2.2301,2.2308,2.231,2.2305,2.2313,2.2315,2.2318,2.232,2.2316,2.2325,2.2327,2.2336,2.234,2.2342,2.2344,2.2339,2.2356,2.2357,2.2359,2.2363,2.2365,2.2342,2.2342,2.2342,2.2342,0,2.2314,2.232,2.2326,2.233,2.2333,2.234,2.2339,2.2342,2.234,2.2339,2.2347,2.2348,2.2352,2.2354,2.2352,2.2363,2.2361,2.2357,2.2349,2.2362,2.2366,2.2368,2.2343,2.2343,2.2342,2.2342,0,0,2.2335,2.2338,2.234,2.2341,2.2344,2.2348,2.2355,2.2359,2.2362,2.2365,2.2369,2.2377,2.2372,2.2374,2.2372,2.2377,2.2388,2.2371,2.2371,2.2373,2.24,2.2402,2.2404,2.2386,2.2386,2.2386,2.2399,0,2.235,2.2362,2.236,2.2372,2.2377,2.2371,2.2377,2.2379,2.2379,2.2383,2.2382,2.2387,2.2381,2.2382,2.2387,2.2386,2.2393,2.2385,2.2389,2.2389,2.2388,2.2407,2.2409,2.2422,2.2401,2.2401,2.2401,0,2.2369,2.2373,2.2385,2.2386,2.2388,2.2393,2.2396,2.24,2.2402,2.2401,2.2403,2.24,2.2406,2.2399,2.2407,2.2402,2.2404,2.2404,2.2404,2.2403,2.2395,2.2405,2.2426,2.2427,2.2404,2.2404,2.2404,0,2.2383,2.239,2.2398,2.24,2.2401,2.2405,2.2406,2.2407,2.2409,2.2412,2.2413,2.2417,2.2419,2.2421,2.2419,2.2414,2.2427,2.242,2.2426,2.2426,2.2428,2.2427,2.2447,2.2431,2.2431,2.2431,2.2431,0,2.2399,2.2406,2.2404,2.2409,2.2416,2.2414,2.2421,2.2421,2.2423,2.2427,2.2423,2.2427,2.2424,2.2428,2.2426,2.2432,2.2433,2.2432,2.2432,2.2432,2.2432,2.2432,2.2431,2.2431,2.2431,2.2431,2.2431,0,2.2414,2.2413,2.2421,2.2422,2.2423,2.2428,2.2429,2.2433,2.2432,2.2437,2.2439,2.2437,2.2441,2.244,2.2444,2.2443,2.245,2.2449,2.245,2.2449,2.2454,2.2454,2.2474,2.2477,2.246,2.246,2.246,0,2.2424,2.2429,2.2431,2.2433,2.2435,2.2439,2.2441,2.2439,2.2442,2.2444,2.2448,2.2451,2.2454,2.2461,2.246,2.2463,2.2461,2.2468,2.2461,2.2461,2.246,2.2459,2.2459,2.2469,2.2469,2.2469,2.247,0,2.2441,2.244,2.2444,2.2447,2.245,2.2453,2.2455,2.2458,2.2455,2.2458,2.2463,2.2465,2.2469,2.2472,2.2475,2.2475,2.2472,2.2472,2.2473,2.2473,2.2473,2.2472,2.2452,2.2471,2.2471,2.2471,2.2471,2.2471,2.2453,2.2457,2.2459,2.2463,2.2464,2.2467,2.247,2.247,2.2474,2.2477,2.2476,2.248,2.2481,2.2484,2.2485,2.2489,2.2486,2.2488,2.2488,2.2488,2.2489,2.2473,2.2489,2.2489,2.2489,2.2489,2.2489,0,2.2469,2.247,2.2474,2.2477,2.248,2.2477,2.2479,2.2482,2.2486,2.2487,2.249,2.2495,2.2498,2.2498,2.2501,2.2503,2.2501,2.2504,2.2503,2.2503,2.2492,2.249,2.2505,2.2505,2.2505,2.2505,2.2505,2.2505,2.2477,2.2484,2.2483,2.249,2.2491,2.2496,2.2497,2.2499,2.25,2.2505,2.2508,2.2508,2.2508,2.2511,2.2514,2.2514,2.2515,2.2517,2.2517,2.2506,2.2504,2.2502,2.25,2.2518,2.2518,2.2528,2.2528,2.2528]}]]